Regional Weather Roundup
Issued by NWS

Home | Current Version | Previous Version | Graphics & Text | Print | Product List | Glossary On
Versions: 1 2 3 4 5 6 7 8 9 10 11 12 13 14 15 16 17 18 19 20 21 22 23 24 25 26 27
000
ASUS45 KBOU 270507
RWRCO

WEATHER ROUNDUP FOR COLORADO
NATIONAL WEATHER SERVICE DENVER/BOULDER CO
1100 PM MDT SUN MAR 26 2017

NOTE: "FAIR" INDICATES FEW OR NO CLOUDS BELOW 12000 FEET WITH NO
SIGNIFICANT WEATHER AND/OR OBSTRUCTIONS TO VISIBILITY.

COZ001>005-013-030-031-270600-
...NORTHWEST COLORADO...

CITY           SKY/WX    TMP DP  RH WIND       PRES   REMARKS
CRAIG          MOCLDY    36  25  64 E5        29.99S
HAYDEN         FAIR      36  23  60 CALM      29.99S
MEEKER         FAIR      34  25  69 NE3       29.99S
MOUNT WERNER   NOT AVBL
STEAMBOAT SPGS FAIR      34  29  82 E3        30.00S
WALDEN         NOT AVBL
$$

COZ006>008-011-270600-
...WEST CENTRAL VALLEYS...

CITY           SKY/WX    TMP DP  RH WIND       PRES   REMARKS
GRAND JUNCTION FAIR      46  22  38 NE8       29.95F
MONTROSE       FAIR      41  35  79 SE8       30.02R
EAGLE          FAIR      39  25  57 E7        30.03R
RIFLE          FAIR      40  28  62 SE5       29.98S
DELTA          FAIR      46  30  53 NE6       29.98F
NUCLA          FAIR      43  32  65 E9        30.05S
$$

COZ017>023-064>068-270600-
...SOUTHWEST COLORADO...

CITY           SKY/WX    TMP DP  RH WIND       PRES   REMARKS
DURANGO        FAIR      43  27  53 SW9       30.03R
CORTEZ         FAIR      38  32  79 NE7       30.03R
PAGOSA SPRINGS FAIR      39  34  83 CALM      30.07R
TELLURIDE      FAIR      34  27  76 SE6       30.12R WCI  29
WOLF CREEK PAS FOG       23  23 100 S20       30.16F VSB 1   WCI   8
$$

COZ009-010-012-014-032>034-037-058>063-270600-
...CENTRAL COLORADO...

CITY           SKY/WX    TMP DP  RH WIND       PRES   REMARKS
ASPEN          FAIR      31  25  78 S3        30.03R
BUENA VISTA    FAIR      37  22  54 CALM      30.00S
COPPER MTN     NOT AVBL
BERTHOUD PASS  CLOUDY    18   7  62 NW20      30.07F WCI   1
COTTONWOOD PAS FAIR      36  18  48 SW14G24   30.04F
GUNNISON       FAIR      33  25  72 N5        30.05R WCI  29
KREMMLING      FAIR      37  32  81 CALM      30.03R
LEADVILLE      FAIR      27  19  72 NE6       30.04S WCI  20
MONARCH PASS   FOG       23  21  93 SW26      30.19F VSB 1/4 WCI   6
SALIDA         FAIR      40  34  78 SE9       30.07F
SUNLIGHT       FAIR      27  21  80 SW9G18    30.12F WCI  17
WILKERSON PASS MOCLDY    27  27 100 SW6       30.09F FOG     WCI  20
$$

COZ069>075-270600-
...SAN LUIS VALLEY/SANGRE DE CRISTO MOUNTAINS...

CITY           SKY/WX    TMP DP  RH WIND       PRES   REMARKS
ALAMOSA        FAIR      35  28  75 CALM      30.00S
LA VETA PASS   NOT AVBL
SAGUACHE       FAIR      39  23  52 NW14G21   30.02R
$$

COZ035-036-038>040-270600-
...NORTHERN COLORADO FRONT RANGE...

CITY           SKY/WX    TMP DP  RH WIND       PRES   REMARKS
DENVER INTL AP MOCLDY    42  35  76 NE6       29.98S
DMNS CITY PARK   N/A     43  38  82 NE1G7     29.98S
AURORA         MOCLDY    41  38  91 CALM      29.99S
FRONT RANGE AP NOT AVBL
ERIE MUNI ARPT CLOUDY    40  38  93 CALM      29.98F
BOULDER MUN AP CLOUDY    45  41  87 CALM      29.97F
CENTENNIAL     MOCLDY    42  36  79 CALM      29.98F
BROOMFIELD     NOT AVBL
FORT COLLINS   FAIR      41  38  89 E7        29.99S
LONGMONT       CLOUDY    45  42  91 CALM      30.00S
$$

COZ041-046-047-076>085-087-088-270600-
...PIKES PEAK/PALMER DIVIDE AND SOUTHERN FOOTHILLS...

CITY           SKY/WX    TMP DP  RH WIND       PRES   REMARKS
COLO. SPRINGS  CLOUDY    43  38  82 SE9       30.01S
A. F. ACADEMY  CLOUDY    42  38  87 N3        29.99S
SCHRIEVER AFB  CLOUDY    41  38  91 SW12      30.01S
ELLICOTT         N/A    N/A N/A N/A CALM      29.99F
FALCON         CLOUDY    39  37  94 CALM      30.02S
FORT CARSON    CLOUDY    44  41  90 SE7       29.99S
LIMON          FAIR      29  28  96 CALM      29.98S
MONUMENT HILL  CLOUDY    36  32  87 SW3       30.02S
TRINIDAD       FAIR      40  36  86 S6        30.00F
$$

COZ042>045-048>051-090-091-270600-
...NORTHEAST COLORADO...

CITY           SKY/WX    TMP DP  RH WIND       PRES   REMARKS
GREELEY ARPT   FAIR      38  32  79 NE3       29.99S
AKRON          FAIR      37  33  85 N10       29.96S
BURLINGTON     FAIR      37  36  96 SW7       29.96S
WRAY           NOT AVBL
STERLING       FAIR      37  34  87 CALM      29.95S
HOLYOKE        FAIR      45  37  76 NW9       29.94S
FORT MORGAN    FAIR      37  33  85 N12       29.98S
$$

COZ086-089-092>099-270600-
...SOUTHEAST COLORADO...

CITY           SKY/WX    TMP DP  RH WIND       PRES   REMARKS
PUEBLO         CLOUDY    47  39  74 E3        29.98F
LA JUNTA       FAIR      41  36  82 SW9       29.98S
LAMAR          FAIR      30  28  92 SW10      29.97S WCI  21
SPRINGFIELD      N/A     33  32  96 W8        29.98S WCI  26
$$




USA.gov is the U.S. government's official web portal to all federal, state and local government web resources and services.